Powrót do katalogu

NOAA 16 DEB

AktywnySSO
NORAD 42372·DEBRIS·🇺🇸 United States

Wystrzelony Sep 21, 2000 z Vandenberg Space Force Base

Loading…

Następne Przeloty (najbliższe 24 godziny)

TLE

ŚwieżeSource: Space-Track

Epoka: Sep 13, 2026, 03:31 UTC

1 42372U 00055RQ  26256.14664329  .00003038  00000-0  10803-2 0  9992
2 42372  98.8796  22.4260 0010967  84.6884 275.5552 14.35088015539995

Śledź NOAA 16 DEB w czasie rzeczywistym z AllMySat

Download on the App Store